STARLINK-32645 (62321 NORAD) Tracking and Keplerian Element Data

This shows tracking and keplerian element data for the satellite.

Feedback or suggestion? Click here.




ElementValue
Catalog62321
NameSTARLINK-32645
Epoch Orbit825
Epoch Day34.83153871
Epoch Year2025
RAAN251.0741
Inclination53.155
Eccentricity9.39E-05
Argument of Perigee107.7689
Mean Anonmoly252.3418
Mean Motion15.39620694
Decay Rate2.642E-05
L11 62321U 24239W 25034.83153871 .00002642 00000+0 75991-4 0 9992
L22 62321 53.1550 251.0741 0000939 107.7689 252.3418 15.39620694 8259



Live tracking and technical data element details for STARLINK-32645 (NORAD 62321). STARLINK-32645 can be tracked NOW for your location showing map with azimuth and elevation plus other details from your city location.







IsCatalogInMostPopularTable: catalog: 62321, numindb: 16
Update: records affected: 1



GetName: 62321 STARLINK-32645

Hit Count: updated at: Sun, 18 May 2025 22:23:57 GMT